EW6613 Weather Reports


time (UTC)temp
F
wind
direction
speed
knots
gust
knots
rain 1hr
in
rain 24hr
in
rain mn
in
humidity
%
barometer
mb
20260508023045 48 261 0.0 0.0 0.00 1.14 1.14 98 1002.5
20260508021545 48 189 0.0 0.0 0.00 1.14 1.14 98 1002.4
20260508020048 48 189 0.0 0.0 0.00 1.14 1.14 98 1002.4
20260508014546 47 189 0.0 0.0 0.00 1.14 1.14 98 1002.6
20260508013043 47 246 0.0 0.0 0.00 1.14 1.14 98 1002.6
20260508011556 47 274 0.0 0.0 0.00 1.14 1.14 98 1002.3
20260508010055 47 275 0.0 0.0 0.00 1.14 1.14 98 1002.5
20260508004554 48 270 0.0 0.0 0.00 1.14 1.14 97 1002.9
20260508003043 49 268 0.0 0.0 0.00 1.14 1.14 98 1002.8
20260508001542 49 198 0.0 0.0 0.00 1.14 1.14 98 1002.7
20260508000039 49 184 0.0 0.0 0.00 1.14 1.14 98 1002.5
20260507234538 49 189 0.0 0.0 0.00 1.14 1.14 98 1003.0
20260507233038 50 169 0.0 0.0 0.00 1.14 1.14 98 1002.7
20260507231540 50 170 0.0 0.0 0.00 1.14 1.14 98 1002.8
20260507230037 50 175 0.0 0.0 0.00 1.14 1.14 98 1003.2
20260507224537 51 208 0.0 0.0 0.00 1.14 1.14 98 1003.0
20260507223035 51 157 0.0 0.0 0.00 1.14 1.14 98 1003.4
20260507221537 51 225 0.0 0.0 0.00 1.14 1.14 98 1003.5
20260507220034 51 171 0.0 0.0 0.00 1.14 1.14 98 1003.5
20260507214534 51 200 0.0 0.0 0.01 1.14 1.14 98 1003.4
20260507213033 50 210 0.0 0.0 0.03 1.14 1.14 98 1003.3
20260507211532 50 251 0.0 0.0 0.08 1.14 1.14 97 1002.8
20260507210030 50 172 0.0 0.0 0.13 1.14 1.14 98 1002.5
20260507204528 50 165 0.0 0.0 0.20 1.12 1.12 98 1003.2
20260507203025 49 149 0.0 0.0 0.31 1.12 1.12 97 1004.1
20260507201524 49 210 0.0 0.0 0.46 1.07 1.07 97 1004.2
20260507200032 50 157 0.0 0.0 0.53 1.02 1.02 98 1004.6
20260507194521 47 170 0.0 0.0 0.54 0.93 0.93 97 1005.4
20260507193022 48 163 0.0 0.0 0.54 0.79 0.79 95 1005.9
20260507191516 53 207 0.0 0.0 0.43 0.60 0.60 96 1005.3
20260507190028 53 179 0.0 0.0 0.34 0.49 0.49 96 1005.0
20260507184512 53 160 0.0 0.0 0.24 0.38 0.38 96 1005.5
20260507183017 53 220 0.0 0.0 0.11 0.24 0.24 95 1005.9
20260507181511 54 161 0.0 0.0 0.02 0.16 0.16 95 1005.8
20260507180013 55 180 0.0 0.0 0.02 0.15 0.15 93 1005.4
20260507174510 55 140 0.0 0.0 0.01 0.14 0.14 92 1005.5
20260507173006 56 140 0.0 0.0 0.00 0.13 0.13 93 1006.0
20260507171504 56 173 0.0 0.0 0.00 0.13 0.13 93 1006.4
20260507170004 55 219 0.0 0.0 0.00 0.13 0.13 94 1006.6
20260507164502 55 189 0.0 0.0 0.01 0.13 0.13 94 1006.8
20260507163103 55 185 0.0 0.0 0.01 0.13 0.13 94 1007.1
20260507161557 55 148 0.0 0.0 0.01 0.13 0.13 95 1007.9
20260507160101 55 170 0.0 0.0 0.01 0.13 0.13 95 1008.3
20260507154554 55 189 0.0 0.0 0.00 0.13 0.13 95 1008.7
20260507153056 55 178 0.0 0.0 0.00 0.13 0.13 94 1009.1
20260507151550 54 174 0.0 0.0 0.00 0.13 0.13 94 1009.4
20260507150049 55 179 0.0 0.0 0.00 0.13 0.13 94 1009.9
20260507144550 55 177 0.0 0.0 0.00 0.13 0.13 94 1009.9
20260507143044 55 175 0.0 0.0 0.00 0.13 0.13 94 1010.2
20260507141544 55 220 0.0 0.0 0.00 0.13 0.13 95 1010.7
20260507140104 54 248 0.0 0.0 0.00 0.13 0.13 95 1011.0
20260507134542 54 256 0.0 0.0 0.00 0.13 0.13 95 1010.9
20260507133142 54 153 0.0 0.0 0.00 0.13 0.13 94 1011.1
20260507131543 55 169 0.0 0.0 0.00 0.13 0.13 94 1010.9
20260507130050 55 137 0.0 0.0 0.00 0.13 0.13 96 1011.2
20260507124540 55 175 0.0 0.0 0.00 0.13 0.13 96 1011.1
20260507123038 54 232 0.0 0.0 0.01 0.13 0.13 96 1010.8
20260507121538 54 184 0.0 0.0 0.02 0.13 0.13 97 1011.7
20260507120026 54 205 0.0 0.0 0.02 0.13 0.13 97 1012.2
20260507114523 54 187 0.0 0.0 0.02 0.13 0.13 97 1012.5
20260507113032 54 169 0.0 0.0 0.01 0.12 0.12 97 1012.8
20260507111524 53 172 0.0 0.0 0.00 0.11 0.11 97 1012.7
20260507110027 53 194 0.0 0.0 0.00 0.11 0.11 97 1012.7
20260507104521 53 178 0.0 0.0 0.01 0.11 0.11 96 1012.8
20260507103020 53 132 0.0 0.0 0.01 0.11 0.11 96 1013.0
20260507101527 53 149 0.0 0.0 0.02 0.11 0.11 97 1013.0
20260507100026 52 148 0.0 0.0 0.02 0.11 0.11 97 1013.1
20260507094521 53 204 0.0 0.0 0.02 0.10 0.10 97 1013.0
20260507093033 53 169 0.0 0.0 0.03 0.10 0.10 97 1013.0
20260507091516 53 253 0.0 0.0 0.06 0.09 0.09 97 1013.4
20260507090028 53 185 0.0 0.0 0.06 0.09 0.09 97 1013.3
20260507084513 53 179 0.0 0.0 0.06 0.08 0.08 97 1013.3
20260507083024 52 169 0.0 0.0 0.06 0.07 0.07 97 1013.4
20260507081512 52 186 0.0 0.0 0.04 0.04 0.04 97 1013.5
20260507074513 52 172 0.0 0.0 0.02 0.02 0.02 97 1014.1
20260507073005 52 163 0.0 0.0 0.01 0.01 0.01 97 1014.2
20260507071504 51 190 0.0 0.0 0.00 0.00 0.00 97 1014.6
20260507070003 51 160 0.0 0.0 0.00 0.00 0.00 97 1014.7
20260507064601 52 164 0.0 0.0 0.00 0.00 0.00 97 1014.8
20260507063101 52 212 0.0 0.0 0.00 0.00 0.00 97 1014.9
20260507061558 52 173 0.0 0.0 0.00 0.00 0.00 97 1015.1
20260507060100 52 200 0.0 0.0 0.00 0.00 0.00 97 1015.2
20260507054603 51 193 0.0 0.0 0.00 0.00 0.00 97 1015.6
20260507053052 51 196 0.0 0.0 0.00 0.00 0.00 98 1015.9
20260507051549 51 156 0.0 0.0 0.00 0.00 0.00 98 1016.4
20260507050045 51 234 0.0 0.0 0.00 0.00 0.00 98 1016.7
20260507044543 51 254 0.0 0.0 0.00 0.00 0.00 98 1017.1
20260507043041 51 223 0.0 0.0 0.00 0.00 0.00 97 1017.2
20260507041539 51 235 0.0 0.0 0.00 0.00 0.00 97 1017.7
20260507040045 51 295 0.0 0.0 0.00 0.00 0.00 97 1017.8
20260507034540 51 268 0.0 0.0 0.00 0.00 0.00 97 1018.1
20260507033037 51 206 0.0 0.0 0.00 0.00 0.00 97 1018.3
20260507031531 51 244 0.0 0.0 0.00 0.00 0.00 97 1018.5
20260507030032 51 200 0.0 0.0 0.00 0.00 0.00 97 1018.7
20260507024529 51 194 0.0 0.0 0.00 0.00 0.00 97 1018.9